EFW9PT LEPA-EGPH

Flight info

Callsign EFW9PT
Flight time N/A
Altitude 38000
Route DRAGO DCT PAPOS DCT UMURE N863 GIROM DCT GONUP DCT TUPAR UN861 ANG DCT AKIKI UN867 VASUX DCT TNT UN57 POL UN601 RIBEL DCT INPIP
Aircraft A20N/M-SDE2E3FGHIRWXY/LB1

Departure

Time 2026-05-04 16:55
Airport Palma de Mallorca Airport (LEPA)

Arrival

Time N/A
Airport Edinburgh Airport (EGPH)
Time Latitude Longitude Altitude Speed Heading
2026-05-04 16:11 39.55131 2.72971 30 ft 0 kts 164°
2026-05-04 16:35 39.55135 2.72970 30 ft 2 kts 164°
2026-05-04 16:36 39.55154 2.72963 30 ft 3 kts 164°
2026-05-04 16:36 39.55185 2.72950 30 ft 3 kts 133°
2026-05-04 16:37 39.55188 2.72907 30 ft 2 kts 60°
2026-05-04 16:37 39.55184 2.72898 30 ft 1 kts 58°
2026-05-04 16:40 39.55192 2.72914 30 ft 4 kts 58°
2026-05-04 16:40 39.55241 2.73014 30 ft 10 kts 53°
2026-05-04 16:41 39.55377 2.72980 30 ft 12 kts 349°
2026-05-04 16:41 39.55557 2.73290 30 ft 16 kts 58°
2026-05-04 16:42 39.55704 2.73602 30 ft 10 kts 58°
2026-05-04 16:43 39.55791 2.73783 30 ft 14 kts 59°
2026-05-04 16:43 39.55909 2.74035 30 ft 18 kts 58°
2026-05-04 16:43 39.55973 2.74166 30 ft 13 kts 56°
2026-05-04 16:44 39.56151 2.74350 30 ft 0 kts 35°
2026-05-04 16:53 39.56154 2.74353 30 ft 4 kts 35°
2026-05-04 16:54 39.56226 2.74349 30 ft 14 kts 319°
2026-05-04 16:55 39.55382 2.72477 58 ft 157 kts 238°
2026-05-04 16:55 39.54214 2.70060 1363 ft 160 kts 235°
2026-05-04 16:56 39.52825 2.67716 2376 ft 179 kts 231°
2026-05-04 16:56 39.50459 2.63211 4244 ft 209 kts 237°
2026-05-04 16:57 39.49693 2.61625 5178 ft 208 kts 237°
2026-05-04 16:57 39.48633 2.58039 6509 ft 239 kts 272°
2026-05-04 16:58 39.51801 2.52250 8600 ft 282 kts 310°
2026-05-04 16:58 39.53186 2.50430 9519 ft 285 kts 308°
2026-05-04 16:59 39.55918 2.46480 10666 ft 312 kts 306°
2026-05-04 17:00 39.61919 2.37238 13505 ft 341 kts 306°
2026-05-04 17:00 39.66544 2.30073 15551 ft 353 kts 306°
2026-05-04 17:01 39.69735 2.25123 16887 ft 360 kts 306°
2026-05-04 17:01 39.72987 2.20070 18202 ft 367 kts 306°
2026-05-04 17:02 39.76284 2.14940 19368 ft 373 kts 306°
2026-05-04 17:02 39.79627 2.09733 20508 ft 379 kts 306°